This is the latest recevied weather packets stored in our database for station/object W4FXD. If no packets are shown the sender has not sent any weather packets the latest 10 day(s).
| Time | Temp. | Humidity | Pressure | Rain* | Wind** | Luminosity | Snow |
|---|---|---|---|---|---|---|---|
| 1778199596 | 14.44° C | 81% | 1013.9 hPa | 0 mm | - | 4 W/m² | - |
| 1778199293 | 15° C | 79% | 1014 hPa | 0 mm | - | 6 W/m² | - |
| 1778198989 | 15° C | 78% | 1013.8 hPa | 0 mm | - | 10 W/m² | - |
| 1778198685 | 15° C | 79% | 1013.7 hPa | 0 mm | - | 14 W/m² | - |
| 1778198382 | 15° C | 78% | 1013.5 hPa | 0 mm | - | 16 W/m² | - |
| 1778198079 | 15° C | 78% | 1013.4 hPa | 0 mm | - | 15 W/m² | - |
| 1778197777 | 15.56° C | 78% | 1013.5 hPa | 0 mm | - | 17 W/m² | - |
| 1778197473 | 15.56° C | 80% | 1013.4 hPa | 0 mm | - | 22 W/m² | - |
| 1778197169 | 15.56° C | 80% | 1013.5 hPa | 0 mm | - | 28 W/m² | - |
| 1778196867 | 15.56° C | 79% | 1013.3 hPa | 0 mm | - | 27 W/m² | - |
| 1778196565 | 15.56° C | 78% | 1013.4 hPa | 0 mm | - | 32 W/m² | - |
| 1778196261 | 16.11° C | 77% | 1013.4 hPa | 0 mm | - | 28 W/m² | - |
| 1778195958 | 16.11° C | 73% | 1013.4 hPa | 0 mm | - | 39 W/m² | - |
| 1778195655 | 16.11° C | 74% | 1013.5 hPa | 0 mm | - | 33 W/m² | - |
| 1778195351 | 16.67° C | 74% | 1013.4 hPa | 0 mm | - | 38 W/m² | - |
| 1778195049 | 17.22° C | 70% | 1013.3 hPa | 0 mm | - | 43 W/m² | - |
| 1778194749 | 17.22° C | 65% | 1013.4 hPa | 0 mm | - | 49 W/m² | - |
| 1778194445 | 17.22° C | 66% | 1013.1 hPa | 0 mm | - | 50 W/m² | - |
| 1778194141 | 17.22° C | 67% | 1013.3 hPa | 0 mm | - | 41 W/m² | - |
| 1778193837 | 17.22° C | 65% | 1013.2 hPa | 0 mm | - | 52 W/m² | - |
| 1778193534 | 17.22° C | 66% | 1013.4 hPa | 0 mm | - | 56 W/m² | - |
| 1778193230 | 17.22° C | 72% | 1013.4 hPa | 0 mm | - | 66 W/m² | - |
| 1778192927 | 17.22° C | 66% | 1013.4 hPa | 0 mm | - | 44 W/m² | - |
| 1778192623 | 17.22° C | 66% | 1013.6 hPa | 0 mm | - | 39 W/m² | - |
| 1778192321 | 17.22° C | 66% | 1013.7 hPa | 0 mm | - | 53 W/m² | - |
* Rain latest hour (hover to see other rain measurements)
** Current wind speed in m/s (hover to see current wind gust speed)